This is the latest recevied weather packets stored in our database for station/object DOUGLAS. If no packets are shown the sender has not sent any weather packets the latest 10 day(s).
| Time | Temp. | Humidity | Pressure | Rain* | Wind** | Luminosity | Snow |
|---|---|---|---|---|---|---|---|
| 1788562803 | 16.11° C | 81% | 0 hPa | - | - | - | - |
| 1788562202 | 16.67° C | 74% | 0 hPa | - | - | - | - |
| 1788561603 | 16.11° C | 77% | 0 hPa | - | - | - | - |
| 1788561003 | 15.56° C | 72% | 0 hPa | - | - | - | - |
| 1788560403 | 16.11° C | 75% | 0 hPa | - | - | - | - |
| 1788559804 | 15.56° C | 75% | 0 hPa | - | - | - | - |
| 1788559204 | 15.56° C | 78% | 0 hPa | - | - | - | - |
| 1788558603 | 16.11° C | 80% | 0 hPa | - | - | - | - |
| 1788558003 | 16.67° C | 73% | 0 hPa | - | - | - | - |
| 1788556803 | 16.11° C | 72% | 0 hPa | - | - | - | - |
| 1788556203 | 16.11° C | 73% | 0 hPa | - | - | - | - |
| 1788555609 | 15.56° C | 75% | 0 hPa | - | - | - | - |
| 1788555002 | 16.11° C | 74% | 0 hPa | - | - | - | - |
| 1788554403 | 16.11° C | 71% | 0 hPa | - | - | - | - |
| 1788553803 | 16.11° C | 78% | 0 hPa | - | - | - | - |
| 1788553203 | 16.11° C | 74% | 0 hPa | - | - | - | - |
| 1788552603 | 15.56° C | 74% | 0 hPa | - | - | - | - |
| 1788552003 | 15.56° C | 73% | 0 hPa | - | - | - | - |
| 1788551402 | 15.56° C | 77% | 0 hPa | - | - | - | - |
| 1788550802 | 15.56° C | 81% | 0 hPa | - | - | - | - |
| 1788550203 | 15° C | 82% | 0 hPa | - | - | - | - |
| 1788549608 | 15° C | 85% | 0 hPa | - | - | - | - |
| 1788549003 | 13.89° C | 86% | 0 hPa | - | - | - | - |
| 1788548404 | 13.89° C | 84% | 0 hPa | - | - | - | - |
| 1788547802 | 13.89° C | 87% | 0 hPa | - | - | - | - |
* Rain since midnight (hover to see other rain measurements)
** Current wind speed in m/s (hover to see current wind gust speed)